Regional Weather Roundup
Issued by NWS

Home | Current Version | Previous Version | Graphics & Text | Print | Product List | Glossary On
Versions: 1 2 3 4 5 6 7 8 9 10 11 12 13 14 15 16 17 18 19 20 21 22 23 24 25 26 27 28 29 30 31 32 33 34 35 36 37 38 39 40 41 42 43 44 45 46 47 48 49 50
000
ASUS43 KLOT 022112
RWRIL

ILLINOIS REGIONAL WEATHER ROUNDUP
NATIONAL WEATHER SERVICE CHICAGO/ROMEOVILLE IL
400 PM CDT WED SEP 02 2015

NOTE: "FAIR" INDICATES FEW OR NO CLOUDS BELOW 12,000 FEET WITH NO
SIGNIFICANT WEATHER AND/OR OBSTRUCTIONS TO VISIBILITY.

* THESE STATIONS ARE NOT UNDER NWS QUALITY CONTROL. THEY ALSO MAY NOT
  REPORT WEATHER SUCH AS PRECIPITATION OR FOG.

ILZ001-002-007-009-015-016-024-022200-
NORTHWEST ILLINOIS

CITY           SKY/WX    TMP DP  RH WIND       PRES   REMARKS
MOLINE         FAIR      85  69  58 SW7       29.96F HX  89
STERLING*      FAIR      86  72  62 W9        29.96S HX  92
SAVANNA*       FAIR      85  67  54 SW8       29.96F HX  88
$$

ILZ003-004-008-010-011-017-018-022200-
NORTH CENTRAL ILLINOIS

CITY           SKY/WX    TMP DP  RH WIND       PRES   REMARKS
ROCKFORD       PTSUNNY   86  69  56 SW8       29.98F HX  90
FREEPORT*      FAIR      82  69  66 SW8       30.00F HX  85
ROCHELLE*      FAIR      85  71  63 SW5       29.99F HX  90
DE KALB*       FAIR      85  71  62 SW9       30.00F HX  91
PERU*          FAIR      88  65  45 SW6       29.98F HX  89
$$

ILZ005-006-012>014-019>023-022200-
NORTHEAST ILLINOIS

CITY           SKY/WX    TMP DP  RH WIND       PRES   REMARKS
CHICAGO-OHARE  PTSUNNY   89  67  47 SW15G22   29.97F HX  92
CHICAGO-MIDWAY PTSUNNY   91  68  46 W10       29.97F HX  95
AURORA         FAIR      87  70  56 SW8       29.99F HX  92
LANSING*       FAIR      89  68  50 SW12      29.99F HX  92
JOLIET*        FAIR      89  70  52 SW6       29.98F HX  94
WAUKEGAN       FAIR      85  70  60 SW8       29.96F HX  89
DUPAGE AIRPORT FAIR      88  69  53 W12       29.98F HX  92
KANKAKEE*      FAIR      88  70  55 SW8       30.00F HX  93
WHEELING       FAIR      91  66  43 SW12G17   29.98F HX  93
MORRIS*        FAIR      88  71  57 W7        29.98F HX  93
ROMEOVILLE*    FAIR      87  67  51 SW5       29.99F HX  90
NORTHERLY ISL    N/A     88  63  43 S10         N/A  HX  89
$$

LMZ740>746-022200-
SOUTHERN LAKE MICHIGAN

STATION/POSITION SKY/WX   TEMP    WIND        PRES    VSBY  WAVE
                          AIR SEA DIR/SP/G                  HT/PER
                          (F)     (DEG/KT/KT) (MB)    (MI)  (FT/S)
SOUTHERN BUOY              74 72  170/  8/  8 1014.5F         1
WILMETTE HARBOR            75 63  290/  4/  4   N/A           1
HARRISON CRIB              87     230/ 10/ 13   N/A
BURNHAM HARBOR             89     280/ 10/ 13   N/A
CALUMET HARBOR             87     200/  9/ 12   N/A
BURNS HARBOR               87     210/ 10/ 17 1016.3F
MICHIGAN CITY              84     340/  4/  5   N/A
MICHIGAN CITY 6N           84 78  120/  2/  2   N/A           0
ST. JOSEPH                 79 75  150/  4/  4   N/A           1
$$

ILZ025>027-034>036-040-047-049-050-058-095>099-022200-
WEST-CENTRAL ILLINOIS

CITY           SKY/WX    TMP DP  RH WIND       PRES   REMARKS
QUINCY         FAIR      89  67  47 S12       29.98F HX  92
GALESBURG*     FAIR      84  69  61 SW6       29.98F HX  88
MACOMB*        FAIR      87  68  52 SW7       30.00F HX  91
JACKSONVILLE*  FAIR      89  66  47 S7        29.98F HX  91
PITTSFIELD*    FAIR      89  68  50 S9        30.00S HX  92
$$

ILZ028>032-037-038-041>044-048-051>054-059>061-022200-
CENTRAL ILLINOIS

CITY           SKY/WX    TMP DP  RH WIND       PRES   REMARKS
PONTIAC        FAIR      91  72  53 SW3       30.00F HX  97
BLOOMINGTON    FAIR      91  68  46 SW9       30.01F HX  95
DECATUR        FAIR      91  64  40 S9        30.00F HX  92
PEORIA         FAIR      92  66  42 VRB7      29.98F HX  94
LACON*         FAIR      85  70  60 SW5       29.98F HX  90
LINCOLN*       FAIR      91  64  40 SW5       29.97F HX  93
SPRINGFIELD    FAIR      91  66  43 SW12      29.99F HX  93
TAYLORVILLE    FAIR      90  68  48 S12       30.00F HX  93
$$

ILZ033-039-045-046-055>057-062-063-022200-
EAST-CENTRAL ILLINOIS

CITY           SKY/WX    TMP DP  RH WIND       PRES   REMARKS
CHAMPAIGN      FAIR      91  67  44 VRB7      30.01F HX  94
MATTOON        FAIR      90  66  45 S10       30.01F HX  92
PARIS*         FAIR      89  68  50 SW8       30.03F HX  93
$$

ILZ079-100>102-022200-
SOUTHWEST ILLINOIS

CITY           SKY/WX    TMP DP  RH WIND       PRES   REMARKS
ALTON          MOSUNNY   86  68  54 S8        30.00F HX  89
BELLEVILLE     FAIR      91  70  50 VRB3      29.99F HX  96
CAHOKIA*       FAIR      92  66  42 S9        29.99F HX  94
SPARTA*        PTSUNNY   88  70  54 SW3       30.02F HX  93
$$

ILZ064>066-069>071-074>076-080>082-084>086-088>090-092>094-022200-
SOUTH-CENTRAL ILLINOIS

CITY           SKY/WX    TMP DP  RH WIND       PRES   REMARKS
CARBONDALE     FAIR      88  67  49 S5        30.02F HX  91
CAIRO*         FAIR      89  72  56 SE3       30.02F HX  96
EFFINGHAM*     FAIR      88  64  43 S6        30.04S HX  89
MARION         MOSUNNY   90  70  51 S7        30.04F HX  95
MT. VERNON     FAIR      91  70  49 S8        30.03F HX  97
CENTRALIA*     FAIR      91  71  51 SW7       30.02F HX  97
SALEM*         FAIR      91  67  44 S3        30.02F HX  94
METROPOLIS*    PTSUNNY   92  71  51 CALM      30.03F HX  98
$$

ILZ067-068-072-073-078-083-087-091-022200-
SOUTHEAST ILLINOIS

CITY           SKY/WX    TMP DP  RH WIND       PRES   REMARKS
LAWRENCEVILLE  FAIR      92  66  42 VRB6      30.02F HX  94
FLORA*         FAIR      90  65  43 S5        30.02F HX  92
FAIRFIELD*     PTSUNNY   89  69  53 CALM      30.01F HX  93
HARRISBURG*    PTSUNNY   92  68  45 S7        30.03F HX  96
ROBINSON*      FAIR      90  67  46 SW5       30.03F HX  93
CARMI*         FAIR      89  70  52 CALM      30.02F HX  94
$$

ABBREVIATIONS USED IN REMARKS
   TC - TEMPERATURE IN CELSIUS
  WCI - WIND CHILL INDEX
   HX - HEAT INDEX
  VSB - VISIBILITY
$$



USA.gov is the U.S. government's official web portal to all federal, state and local government web resources and services.